Weather History for Alabaster, AL

Change the Weather History Date:

Friday, January 11, 2013

  Actual Average Record
Temperature  
Mean Temperature 66 °F 44 °F  
Max Temperature 69 °F 54 °F 74 °F (1974)
Min Temperature 62 °F 34 °F 5 °F (1962)
Degree Days  
Heating Degree Days 0 21  
Month to date heating degree days 166 231  
Since 1 July heating degree days 1059 1251  
Growing Degree Days 16 (Base 50)    
Moisture  
Dew Point 63 °F    
Average Humidity 87    
Maximum Humidity 93    
Minimum Humidity 81    
Precipitation  
Precipitation 0.34 in 0.16 in 1.90 in (2014)
Month to date precipitation 1.80 1.65  
Year to date precipitation 1.80 1.65  
Snow  
Snow 0.00 in - - ()
Month to date snowfall 0.0  
Since 1 July snowfall 0.0  
Snow Depth 0.00 in    
Sea Level Pressure  
Sea Level Pressure 30.11 in    
Wind  
Wind Speed 5 mph (SSE)    
Max Wind Speed 16 mph    
Max Gust Speed 21 mph    
Visibility 7 miles    
Events Rain    
T = Trace of Precipitation, MM = Missing Value Source: NWS Daily Summary

Daily Weather History Graph

Daily Weather History Graph

Search for Another Location

Airport:

Trip Planner

Search our weather history database for the weather conditions in past years. The results will help you decide how hot, cold, wet, or windy it might be!

Date:

Astronomy

Jan. 11, 2013 Rise Set
Actual Time 6:51 AM CST 4:59 PM CST
Civil Twilight 6:24 AM CST 5:26 PM CST
Nautical Twilight 5:53 AM CST 5:57 PM CST
Astronomical Twilight 5:23 AM CST 6:27 PM CST
Moon 6:25 AM CST (1/11) 5:13 PM CST (1/11)
Length of Visible Light 11h 02m
Length of Day
10h 08m
Waning Crescent, 0% of the Moon is Illuminated
Jan 11
Waning Crescent
Jan 11
New
Jan 18
First Quarter
Jan 26
Full
Feb 3
Last Quarter

Hourly Weather History & Observations

Time (CST) Temp. Dew Point Humidity Pressure Visibility Wind Dir Wind Speed Gust Speed Precip Events Conditions
12:13 AM 66.2 °F 60.8 °F 83% 30.10 in 10.0 mi SSE 12.7 mph - N/A   Mostly Cloudy
12:53 AM 66.0 °F 60.1 °F 81% 30.09 in 10.0 mi South 11.5 mph 18.4 mph N/A   Overcast
1:53 AM 64.9 °F 61.0 °F 87% 30.10 in 10.0 mi South 5.8 mph - N/A   Overcast
2:38 AM 64.4 °F 60.8 °F 88% 30.11 in 10.0 mi SE 4.6 mph - N/A   Overcast
2:53 AM 64.0 °F 60.1 °F 87% 30.09 in 10.0 mi SE 3.5 mph - N/A   Mostly Cloudy
3:53 AM 63.0 °F 60.1 °F 90% 30.09 in 10.0 mi SE 4.6 mph - N/A   Overcast
4:53 AM 63.0 °F 60.1 °F 90% 30.10 in 9.0 mi SSE 3.5 mph - N/A   Overcast
5:53 AM 63.0 °F 61.0 °F 93% 30.11 in 3.0 mi SSE 4.6 mph - 0.02 in Rain Light Rain
6:02 AM 64.4 °F 60.8 °F 88% 30.13 in 5.0 mi SSE 4.6 mph - 0.00 in Rain Light Rain
6:53 AM 63.0 °F 61.0 °F 93% 30.13 in 2.5 mi SSE 4.6 mph - 0.02 in Rain Light Rain
7:06 AM 62.6 °F 60.8 °F 94% 30.14 in 3.0 mi South 5.8 mph - 0.01 in Rain Light Rain
7:24 AM 62.6 °F 60.8 °F 94% 30.15 in 9.0 mi SSE 3.5 mph - 0.01 in   Overcast
7:44 AM 62.6 °F 60.8 °F 94% 30.15 in 7.0 mi SSE 4.6 mph - 0.01 in   Overcast
7:53 AM 63.0 °F 61.0 °F 93% 30.15 in 7.0 mi South 4.6 mph - 0.01 in   Overcast
8:10 AM 62.6 °F 60.8 °F 94% 30.15 in 8.0 mi SSE 4.6 mph - 0.00 in   Overcast
8:53 AM 64.0 °F 62.1 °F 93% 30.15 in 9.0 mi South 10.4 mph 19.6 mph 0.00 in   Overcast
9:13 AM 66.2 °F 62.6 °F 88% 30.15 in 10.0 mi SSE 9.2 mph - N/A   Overcast
9:32 AM 66.2 °F 62.6 °F 88% 30.16 in 10.0 mi South 6.9 mph - N/A   Overcast
9:53 AM 66.9 °F 63.0 °F 87% 30.14 in 10.0 mi SSE 5.8 mph - N/A   Overcast
10:08 AM 66.2 °F 62.6 °F 88% 30.16 in 8.0 mi South 8.1 mph - 0.00 in Rain Light Rain
10:22 AM 66.2 °F 62.6 °F 88% 30.15 in 5.0 mi South 6.9 mph - 0.00 in Rain Light Rain
10:42 AM 64.4 °F 62.6 °F 94% 30.15 in 2.5 mi South 6.9 mph - 0.01 in Rain Light Rain
10:51 AM 64.4 °F 62.6 °F 94% 30.14 in 1.8 mi South 5.8 mph - 0.02 in Rain Light Rain
10:53 AM 64.9 °F 63.0 °F 93% 30.13 in 1.2 mi South 4.6 mph - 0.04 in Rain Light Rain
11:03 AM 64.4 °F 62.6 °F 94% 30.14 in 3.0 mi SSE 5.8 mph - 0.01 in Rain Light Rain
11:53 AM 64.9 °F 63.0 °F 93% 30.10 in 10.0 mi SSE 6.9 mph - 0.02 in   Overcast
12:09 PM 64.4 °F 62.6 °F 94% 30.11 in 1.8 mi SSE 4.6 mph - 0.01 in Rain Light Rain
12:38 PM 64.4 °F 64.4 °F 100% 30.10 in 1.5 mi South 4.6 mph - 0.09 in Rain Light Rain
12:53 PM 64.9 °F 63.0 °F 93% 30.09 in 2.5 mi South 4.6 mph - 0.11 in Rain Light Rain
1:17 PM 64.4 °F 64.4 °F 100% 30.10 in 1.0 mi South 3.5 mph - 0.07 in Rain Heavy Rain
1:31 PM 66.2 °F 64.4 °F 94% 30.10 in 3.0 mi South 3.5 mph - 0.10 in Rain Light Rain
1:46 PM 66.2 °F 64.4 °F 94% 30.09 in 4.0 mi SSE 4.6 mph - 0.11 in Rain Light Rain
1:58 PM 66.2 °F 64.4 °F 94% 30.09 in 8.0 mi SSE 3.5 mph - N/A   Overcast
2:53 PM 69.1 °F 66.0 °F 90% 30.07 in 10.0 mi Calm Calm - N/A   Overcast
3:09 PM 68.0 °F 66.2 °F 94% 30.08 in 9.0 mi Calm Calm - N/A   Overcast
3:19 PM 68.0 °F 66.2 °F 94% 30.09 in 10.0 mi Calm Calm - N/A   Overcast
3:53 PM 68.0 °F 66.0 °F 93% 30.07 in 7.0 mi ESE 3.5 mph - N/A   Overcast
4:53 PM 66.9 °F 64.9 °F 93% 30.07 in 6.0 mi Calm Calm - N/A   Overcast
5:53 PM 66.9 °F 64.9 °F 93% 30.07 in 6.0 mi Calm Calm - N/A   Overcast
6:53 PM 66.9 °F 64.9 °F 93% 30.08 in 7.0 mi Calm Calm - N/A   Overcast
7:53 PM 69.1 °F 64.0 °F 84% 30.09 in 10.0 mi South 5.8 mph - N/A   Overcast
8:53 PM 69.1 °F 64.0 °F 84% 30.09 in 10.0 mi South 8.1 mph - 0.00 in   Mostly Cloudy
9:53 PM 68.0 °F 64.0 °F 87% 30.09 in 10.0 mi South 6.9 mph - N/A   Mostly Cloudy
10:53 PM 68.0 °F 64.9 °F 90% 30.10 in 9.0 mi South 6.9 mph - 0.00 in   Overcast
11:53 PM 68.0 °F 64.9 °F 90% 30.08 in 9.0 mi South 9.2 mph - 0.01 in   Overcast